Theta_e
294 294 295 295 295 295 297 299 301 303 303 307 311 313 314 315 316 316 316 317 318 319 318 318 318 318 318 317 316 315 315 316 316 315 316 314 314 313 315 315 316 317 319 321 323 324 324 325 325 324 324 324 323 323 323 324 323 322 320 319 317 317
293 294 295 295 295 294 295 295 296 301 304 304 306 307 306 306 309 310 312 313 314 315 313 314 316 316 317 317 316 315 316 316 315 315 313 314 312 314 314 315 314 314 315 317 319 321 322 323 323 324 323 323 323 322 321 322 321 320 319 315 314 316
292 292 291 291 290 290 291 293 295 298 299 301 303 305 306 306 307 307 310 309 311 310 312 312 312 313 314 314 314 315 315 314 312 314 315 310 313 312 312 313 313 313 314 316 317 319 320 320 321 321 321 320 320 318 316 313 315 315 311 311 312 311
292 291 288 288 289 289 291 293 292 292 295 299 300 299 302 303 303 306 307 307 309 309 310 310 309 311 310 310 310 311 312 312 312 311 308 309 311 309 311 310 311 310 312 314 315 315 316 317 319 318 319 318 318 318 317 314 313 312 311 309 309 308
291 290 290 291 291 292 290 290 293 294 293 293 294 298 300 301 303 302 303 304 305 306 306 305 304 304 304 307 307 308 309 308 306 305 307 307 305 301 306 307 307 308 309 310 311 313 313 315 315 315 315 315 315 315 315 316 314 313 311 309 309 311
288 289 290 292 293 292 292 293 291 291 292 293 292 294 295 294 295 295 297 298 299 298 297 300 299 299 301 304 305 306 305 304 303 299 302 303 299 301 300 303 304 304 305 306 307 308 309 311 311 311 311 315 314 314 314 311 309 309 309 310 310 310
290 293 293 294 294 291 290 292 293 293 292 291 293 293 292 292 292 293 295 294 295 292 294 295 296 300 300 303 302 302 299 297 296 295 299 298 298 300 299 298 299 301 303 306 307 309 308 308 310 312 311 309 308 308 308 307 307 307 307 308 309 304
291 290 290 294 293 292 291 291 291 290 289 291 289 290 289 289 287 289 291 290 293 293 293 295 296 299 301 300 299 298 295 294 295 295 295 298 305 298 297 300 298 301 303 303 306 306 307 305 303 304 305 303 302 301 302 302 303 304 306 306 306 307
292 293 293 293 290 288 289 289 291 289 288 288 288 288 288 287 288 288 291 290 293 294 294 295 296 297 297 296 296 294 294 295 294 296 298 294 298 298 298 296 298 296 298 299 300 300 301 302 300 300 301 302 302 302 302 302 301 302 302 303 304 304
292 291 291 289 291 289 287 287 288 290 290 292 290 288 287 288 289 289 291 292 293 294 295 295 293 293 293 293 293 294 294 294 293 295 294 293 298 297 296 297 298 296 295 296 298 298 296 297 298 298 299 300 301 299 299 299 300 299 299 298 299 299
293 292 290 290 287 288 288 287 287 286 288 289 289 288 289 288 290 290 292 292 294 294 290 290 291 293 292 292 294 295 296 296 295 293 292 292 293 293 294 295 295 295 294 293 293 294 294 297 299 298 298 297 296 297 298 299 298 297 298 297 294 293
291 290 289 288 289 289 289 289 290 291 292 292 289 289 288 289 290 292 292 293 293 290 290 291 292 293 293 294 296 295 294 294 293 293 292 293 292 292 291 291 292 295 295 295 293 292 292 295 296 293 294 295 297 296 297 296 295 295 295 294 293 292
290 289 289 290 289 290 291 291 292 290 290 290 290 290 289 290 291 292 293 294 292 291 292 293 293 294 294 295 295 293 293 294 292 291 291 291 291 292 291 290 293 292 291 293 293 292 293 294 295 293 295 295 295 295 295 296 295 293 291 291 291 292
291 291 291 291 291 290 291 292 292 290 292 292 291 291 290 291 293 294 294 293 293 294 295 295 295 294 294 293 294 293 292 291 290 291 291 291 290 290 290 291 293 294 293 293 292 293 293 293 292 294 295 295 295 294 294 294 294 293 292 290 290 289
292 293 292 291 292 292 292 293 291 292 294 293 293 290 291 293 294 295 295 294 295 295 295 295 295 294 293 293 293 292 291 290 290 290 290 291 291 289 290 292 292 292 290 291 292 292 291 290 291 293 294 294 295 295 293 292 293 291 290 290 289 290
292 292 292 293 293 293 293 292 294 295 292 291 289 291 292 293 294 296 296 295 295 295 295 294 294 293 293 292 291 291 291 290 291 290 290 290 289 290 290 290 290 290 290 290 292 292 290 290 290 293 294 294 294 294 294 293 291 290 290 289 289 289
292 290 289 291 293 293 291 291 293 291 290 291 292 292 293 293 294 295 296 295 295 294 294 294 293 292 292 291 291 291 291 291 290 290 290 290 290 290 290 290 290 290 289 289 289 289 290 290 291 293 293 293 294 294 294 291 291 290 289 288 289 289
292 293 293 294 293 292 292 293 293 292 292 290 292 291 292 293 293 294 294 295 294 294 294 293 292 292 291 291 290 290 291 290 291 290 289 289 289 289 289 289 289 289 289 288 288 289 290 290 291 292 292 293 294 295 291 289 289 289 288 288 288 287
296 295 293 291 289 290 292 293 291 292 290 290 291 290 290 290 292 293 294 294 294 293 293 293 292 292 291 291 290 290 290 290 290 290 289 289 289 289 289 289 288 289 289 288 288 289 289 289 290 291 291 292 294 292 289 289 288 289 289 288 287 288
294 291 292 291 289 290 291 289 291 291 290 290 289 289 289 290 292 292 292 293 293 293 293 293 292 291 291 290 290 290 291 290 290 290 289 290 289 289 289 289 288 287 288 288 288 289 289 289 288 290 291 292 293 291 289 289 289 287 288 287 286 286
295 292 288 287 288 289 290 290 290 291 291 290 289 289 290 290 292 292 292 293 293 293 293 293 292 292 291 290 291 291 290 290 290 290 288 290 290 289 289 288 288 287 287 287 288 287 288 288 288 289 291 292 292 290 289 288 288 288 287 287 285 284
291 289 288 288 290 290 289 289 290 291 291 291 289 289 290 291 293 294 294 293 291 291 292 292 291 291 290 290 290 290 290 290 290 289 289 289 290 290 289 288 288 287 287 287 287 287 288 288 288 287 290 291 292 291 288 288 288 288 287 286 286 285
293 293 291 291 290 287 287 289 290 290 291 290 289 290 291 293 294 293 291 289 289 290 291 292 291 291 290 290 290 290 289 290 290 289 288 289 289 289 289 288 287 288 287 287 287 287 287 288 288 287 289 291 292 291 289 287 288 288 288 287 286 286
290 290 289 287 287 286 287 289 290 290 290 289 290 291 293 293 292 289 289 289 289 290 290 290 290 290 290 289 289 289 289 289 289 288 288 289 289 288 288 287 287 287 287 287 287 287 287 287 287 287 288 290 291 291 290 288 288 288 287 286 286 285
291 290 288 287 286 286 287 289 289 290 289 290 291 292 293 292 289 288 288 288 288 288 289 289 289 290 290 289 289 289 289 289 288 288 288 288 288 288 287 287 287 287 287 287 286 286 286 286 286 286 287 288 290 291 291 290 288 290 287 287 286 286
289 289 288 287 285 286 287 289 289 289 289 290 292 291 290 287 287 288 287 287 288 288 288 288 289 289 289 289 289 289 289 288 288 288 288 288 288 288 288 288 287 287 287 287 287 286 286 286 286 286 286 287 289 291 291 291 290 290 287 287 287 286
292 290 288 286 285 286 287 288 289 289 289 291 291 291 290 289 288 287 287 287 287 287 288 288 288 289 289 289 289 289 289 288 288 288 288 288 289 289 289 288 287 288 287 287 287 286 286 286 286 286 286 286 286 289 291 291 290 290 289 286 286 285
287 287 289 289 286 287 287 288 289 289 290 291 291 291 289 288 288 287 288 287 287 287 287 287 288 288 288 288 289 289 290 289 289 290 289 289 289 289 290 289 288 288 287 287 287 287 286 286 285 285 286 285 285 286 288 289 289 288 287 286 285 284
289 289 288 289 289 287 287 287 288 289 291 290 289 288 288 288 288 288 288 287 287 287 287 287 288 289 288 288 289 290 290 290 289 290 289 289 290 289 290 290 288 288 288 288 287 287 286 286 285 285 285 285 284 285 284 286 286 286 286 284 282 283
289 289 289 289 290 288 287 287 287 288 288 288 285 287 287 288 287 288 288 287 287 287 287 288 287 288 289 289 289 289 290 290 289 290 290 289 290 290 290 289 289 289 289 289 288 287 286 286 285 284 284 283 282 281 279 280 280 282 281 279 275 275
288 289 289 290 290 288 287 287 287 287 287 287 284 285 287 287 287 287 287 286 286 286 287 287 288 288 289 289 289 290 290 290 290 290 290 290 291 291 291 290 290 289 290 290 289 287 286 286 285 285 285 282 283 280 278 276 278 276 274 277 278 273
287 288 288 289 289 286 287 287 287 286 285 284 284 285 287 287 286 286 286 286 286 286 286 287 287 288 288 288 288 289 289 287 288 289 290 289 287 288 289 289 290 289 289 289 288 288 289 288 286 285 284 284 284 284 283 282 281 281 277 281 283 277
283 284 285 287 287 285 286 286 286 283 282 283 285 286 287 287 286 286 286 285 286 286 287 287 287 288 288 288 288 289 288 287 287 287 287 287 287 287 287 288 288 287 288 288 285 282 286 286 286 286 285 285 285 285 285 284 284 284 284 285 279 272
286 284 286 286 283 284 284 284 284 283 282 282 284 285 286 286 287 287 287 286 286 286 286 287 287 287 288 288 288 288 288 287 285 284 285 286 286 287 287 287 287 287 287 288 287 283 280 283 285 285 284 284 285 285 286 286 286 285 285 285 282 272
287 286 285 284 283 282 281 281 283 281 280 281 283 284 286 286 287 287 287 286 286 286 286 286 287 287 287 287 287 287 287 287 286 284 282 283 285 286 286 286 286 286 286 286 286 286 284 283 284 285 285 284 284 285 285 286 286 286 286 284 275 271
285 285 285 284 283 282 280 281 283 280 278 279 282 284 285 286 286 287 287 286 286 286 286 287 287 287 287 288 288 288 287 287 287 286 283 280 281 281 283 284 285 284 285 285 285 284 284 284 284 284 284 284 284 285 286 286 284 287 286 282 273 272
284 284 284 283 282 281 281 282 282 277 276 278 280 282 284 284 285 285 282 281 283 286 286 286 287 287 287 287 287 287 287 287 286 285 283 283 282 282 281 280 281 283 284 283 283 284 284 284 284 284 284 284 285 286 286 286 282 281 279 276 272 274
282 283 282 280 280 281 281 282 278 274 274 277 279 281 282 283 283 283 283 282 283 284 285 286 287 287 287 287 287 287 287 286 285 283 283 282 282 281 279 277 278 278 281 282 282 283 284 284 284 284 284 284 285 285 284 277 275 276 275 275 274 274
Wind_Speed
8 8 9 8 7 7 8 8 7 7 7 7 10 13 13 13 12 11 10 9 9 9 11 11 10 9 8 7 7 7 9 10 9 9 9 6 7 7 7 7 8 8 9 9 10 9 10 10 10 9 9 9 8 7 9 10 8 9 9 6 8 8
7 8 9 9 9 8 8 6 5 8 9 8 9 7 6 6 7 7 9 9 8 8 6 6 7 8 9 9 9 9 11 10 9 9 7 9 7 8 8 8 9 8 8 8 9 9 9 9 8 9 9 9 9 7 7 9 10 10 9 6 4 4
6 6 5 5 4 4 4 5 8 8 6 7 7 9 8 8 8 7 8 7 8 7 9 8 7 9 8 8 9 10 10 8 8 9 9 5 9 8 8 8 8 8 9 9 9 9 9 8 8 7 6 7 7 7 6 4 5 6 5 4 5 5
6 5 3 2 3 4 5 5 4 5 7 8 7 5 6 7 7 9 8 7 8 9 9 9 7 8 7 8 7 9 9 9 9 8 6 8 8 7 8 8 7 7 8 8 8 7 7 7 7 7 7 8 9 9 8 6 7 7 6 5 6 4
5 4 4 4 5 5 5 4 6 7 6 5 5 7 8 8 8 6 6 7 8 9 8 7 7 6 6 8 8 9 10 8 6 6 8 8 6 5 6 7 7 7 7 6 6 6 6 7 7 6 6 7 7 7 7 8 8 8 8 6 6 7
5 5 5 5 6 6 7 6 5 4 5 6 5 8 7 6 5 5 5 5 6 5 5 7 6 6 7 9 9 10 8 6 5 4 5 5 4 5 5 5 5 5 5 6 5 5 5 5 6 6 6 7 7 8 8 6 6 6 6 7 6 6
7 7 6 7 7 5 5 6 6 5 5 5 7 6 5 5 5 6 6 6 7 6 6 6 6 7 8 9 7 7 5 4 3 3 4 4 4 5 4 4 4 4 5 6 6 6 5 5 5 6 6 6 5 6 5 5 5 4 5 5 6 6
6 5 6 8 7 5 5 4 4 4 4 5 4 5 5 5 4 5 5 5 7 7 7 7 7 9 10 8 5 5 4 3 4 4 4 5 5 4 4 4 4 4 5 5 6 5 6 5 4 5 5 4 4 4 4 4 4 4 4 5 5 6
9 10 8 6 5 5 5 5 5 5 5 4 4 4 4 4 5 4 5 5 6 6 8 8 8 7 5 4 4 3 4 4 4 4 4 4 4 4 4 4 3 3 3 4 3 3 4 4 4 4 4 4 4 4 4 4 5 5 6 5 4 4
7 7 7 6 7 5 5 4 5 5 6 7 6 5 4 5 5 5 5 6 6 7 8 6 4 4 3 3 3 4 4 4 4 5 4 4 4 4 4 3 3 3 3 4 4 4 4 3 4 4 4 4 5 6 5 4 5 5 4 4 4 3
9 7 6 7 5 6 5 5 5 4 5 5 5 5 6 6 6 6 6 6 8 7 5 4 4 4 4 4 4 5 5 5 4 4 4 3 3 3 3 3 3 3 3 3 3 3 3 4 4 4 5 5 3 2 3 5 5 4 4 4 4 4
6 5 4 5 6 6 6 6 7 8 9 8 6 6 5 6 7 7 7 8 7 5 5 5 4 5 4 5 6 6 5 5 4 4 4 3 3 2 2 3 4 4 4 4 3 3 3 4 3 4 5 5 3 3 3 3 3 4 4 5 5 4
6 5 6 7 7 9 8 9 8 6 6 6 6 8 7 7 7 7 8 9 6 6 5 5 5 6 6 6 6 5 6 5 4 4 4 4 4 4 4 4 5 4 4 4 4 4 4 4 4 6 6 6 6 4 4 4 4 3 4 4 4 4
8 8 10 10 9 8 9 10 9 6 10 9 9 8 7 8 8 9 9 7 6 6 7 6 6 7 7 7 8 6 5 4 4 4 5 5 5 5 4 6 6 5 5 5 5 5 5 5 6 6 6 7 7 7 4 4 3 3 3 3 3 3
11 11 10 7 9 10 13 11 6 11 12 10 9 7 9 10 9 8 8 7 8 7 7 7 7 7 7 8 6 5 4 5 5 6 6 7 5 4 5 6 6 6 5 6 6 6 6 5 6 7 8 7 6 7 6 4 3 3 3 2 2 2
8 9 9 9 10 12 11 8 13 12 7 5 5 9 8 9 9 9 9 8 8 8 7 7 8 8 8 6 5 5 6 6 7 6 5 5 5 6 6 5 6 5 6 6 7 6 5 5 7 8 8 7 7 7 6 3 3 4 3 4 3 2
9 8 8 11 14 11 7 8 11 6 5 8 9 9 9 9 10 10 9 9 8 8 8 9 9 9 8 7 7 7 7 8 6 7 7 6 7 7 7 6 6 6 5 6 5 5 5 6 7 8 7 6 6 7 6 3 3 3 3 3 3 3
14 15 15 13 9 7 8 12 7 8 9 6 8 8 8 9 9 9 7 9 10 10 10 10 10 9 8 8 8 9 9 9 9 9 7 6 5 4 4 5 4 6 5 5 4 4 5 5 7 7 7 8 8 8 5 4 4 3 3 3 3 3
14 14 9 4 5 7 10 9 7 8 6 8 9 8 8 7 9 10 11 12 10 11 11 11 11 10 10 10 10 11 11 11 11 8 6 7 7 6 6 6 5 5 6 5 5 5 4 4 5 7 7 8 9 8 5 5 4 4 3 3 3 4
7 6 7 8 7 9 7 6 7 8 9 8 7 8 8 9 12 12 11 13 13 12 12 12 12 11 11 11 13 14 11 9 6 8 7 9 8 8 7 6 5 4 4 5 6 6 5 4 5 7 7 8 10 8 6 5 5 4 4 3 2 2
14 9 5 6 8 11 10 9 9 9 10 9 8 8 9 12 13 12 13 15 14 12 12 12 12 12 12 13 14 12 11 12 11 7 7 6 6 6 6 5 5 4 4 4 5 6 6 4 5 7 7 9 10 7 5 5 5 4 4 4 3 2
7 4 7 9 14 9 8 9 9 11 11 11 10 10 12 15 17 17 16 10 7 9 10 11 12 12 13 14 11 10 11 8 7 8 9 7 6 6 6 5 5 6 5 5 5 5 5 5 4 4 7 7 9 9 5 4 5 5 5 4 4 4
10 12 11 11 8 4 6 8 9 11 11 10 11 14 16 17 16 12 9 6 7 9 11 10 12 14 12 9 9 8 7 8 9 8 9 9 7 6 6 7 6 5 5 5 4 5 4 5 5 5 7 7 8 10 8 4 5 4 4 4 4 3
8 9 9 6 2 4 6 8 10 11 9 9 13 17 17 15 11 6 7 9 10 10 10 11 10 9 9 8 8 10 10 8 7 8 8 7 7 8 8 7 6 6 5 5 4 4 5 4 6 5 7 8 8 9 9 5 5 4 5 4 3 3
8 8 7 4 4 5 7 9 10 10 9 12 17 15 13 13 7 6 7 8 9 10 11 10 11 11 9 10 10 10 10 8 9 8 8 8 8 9 9 8 7 7 6 5 5 4 5 4 5 7 5 7 7 9 10 9 5 5 4 5 5 5
6 6 7 7 6 7 8 12 12 11 11 16 14 9 9 4 5 7 8 8 9 9 9 10 11 10 9 10 10 10 9 10 9 9 9 9 9 9 9 8 8 7 8 8 7 6 5 4 4 5 7 6 8 8 10 9 7 7 4 4 4 4
10 7 7 5 5 6 8 9 11 12 13 14 10 11 12 10 9 9 9 9 9 10 9 9 9 10 10 10 11 11 11 11 10 10 9 9 9 9 9 9 8 9 9 8 8 7 6 5 5 4 5 7 6 7 7 8 8 8 7 4 3 3
5 6 8 8 7 8 8 9 10 12 14 11 10 12 7 8 8 9 11 10 10 10 9 10 9 9 10 10 9 11 9 11 11 11 10 9 9 9 10 9 9 9 9 9 7 7 7 6 5 5 4 4 5 5 6 7 7 8 8 6 5 6
7 8 9 10 9 9 9 10 10 13 11 9 7 6 7 9 11 11 9 10 9 8 9 11 10 9 9 10 9 9 9 9 9 9 10 10 11 10 10 10 10 10 9 9 8 7 7 7 6 6 5 5 5 4 4 4 4 5 6 4 3 5
8 9 9 11 12 6 8 7 10 10 10 7 3 5 7 9 10 12 12 12 10 9 10 11 12 12 10 10 11 11 11 10 10 11 13 15 15 14 13 12 12 12 12 11 8 7 7 7 7 7 8 7 6 5 4 4 5 5 5 5 4 4
9 10 8 12 10 7 7 9 10 9 8 7 5 6 8 9 9 9 7 6 7 8 8 9 10 11 11 11 11 10 10 11 12 12 9 6 5 8 11 11 10 9 8 7 9 10 9 8 9 9 6 8 9 8 7 5 5 5 5 6 8 6
8 8 9 11 9 6 7 8 9 7 6 5 6 7 8 9 7 7 8 8 8 8 8 8 8 7 7 7 8 8 7 5 7 7 7 7 6 7 7 7 7 6 6 7 6 7 10 10 5 10 12 11 12 11 11 9 8 7 6 9 11 6
6 7 8 12 8 6 7 8 8 6 6 6 7 9 9 7 8 8 8 8 10 11 10 9 8 9 9 8 8 8 9 5 4 5 7 8 7 7 8 9 9 10 10 8 6 2 4 10 12 12 11 12 11 11 10 9 9 9 10 12 8 4
7 6 9 7 5 7 7 7 7 6 5 7 7 8 9 9 10 10 11 11 9 10 10 9 9 9 9 8 8 8 8 8 7 3 2 9 12 12 11 11 11 12 13 13 11 8 3 7 10 11 11 12 12 12 10 10 10 11 12 14 9 6
7 6 5 6 6 6 6 7 9 5 5 6 7 8 9 11 11 11 9 9 9 9 11 10 10 10 10 11 11 10 10 10 10 11 7 3 5 9 13 13 12 13 12 10 12 14 10 8 9 13 13 12 12 12 11 11 12 13 14 11 5 6
7 7 7 7 7 6 6 8 10 5 4 4 6 8 10 10 11 11 9 9 10 10 10 11 11 11 11 11 11 11 11 11 11 10 10 11 8 6 3 6 13 14 13 12 13 13 13 13 13 13 13 13 12 12 12 10 9 13 14 9 6 6
8 8 8 7 6 6 7 10 9 3 3 4 5 6 8 8 8 8 8 11 10 10 11 10 10 10 10 10 10 11 11 11 10 10 12 13 13 12 12 9 6 9 13 11 10 13 14 13 12 12 12 13 12 13 13 11 8 8 7 5 3 5
7 9 8 6 6 6 7 11 5 3 4 4 5 6 8 8 7 7 7 7 10 9 8 9 9 10 10 10 10 9 9 8 9 9 10 8 7 8 8 7 5 5 7 13 11 13 13 13 12 11 11 11 13 13 13 9 7 6 6 5 5 5
Wind_Direction
221 219 220 221 218 214 213 213 206 211 213 212 208 207 206 204 203 205 209 208 209 210 210 208 209 209 210 207 203 193 205 214 212 213 218 212 207 211 212 212 216 215 217 219 224 223 223 223 225 224 228 230 236 231 233 229 228 235 236 221 216 226
221 216 219 218 216 214 214 206 196 207 210 204 212 218 211 205 204 199 205 206 205 209 203 207 202 202 204 204 199 205 213 215 209 215 215 215 205 212 211 215 215 213 217 217 221 225 225 224 225 222 223 224 227 234 237 231 225 227 225 222 223 232
237 231 229 235 246 232 214 202 203 209 199 210 208 204 205 203 203 192 208 190 205 200 203 204 197 203 203 204 203 210 216 213 211 215 215 202 217 207 215 217 216 214 216 216 218 221 222 223 227 220 222 231 235 236 237 232 224 229 230 214 230 230
256 261 262 254 229 225 211 216 203 197 201 210 201 204 207 199 199 200 198 194 198 200 204 205 202 204 199 202 201 212 212 213 213 211 203 215 219 203 216 216 215 215 215 217 219 220 222 224 227 222 220 224 228 237 232 227 225 224 227 223 238 249
251 263 263 237 222 224 210 204 204 207 206 194 196 197 214 200 205 199 189 194 198 205 205 198 201 192 196 199 206 214 214 214 213 202 209 216 216 213 217 216 212 213 212 214 218 217 219 222 222 219 220 226 229 236 236 230 228 228 228 225 230 234
274 285 264 243 234 222 210 204 203 200 197 197 187 208 210 204 200 187 188 197 206 200 190 199 191 187 199 205 210 213 213 207 211 197 210 209 199 206 223 221 215 215 210 212 215 215 217 220 220 220 219 225 226 235 241 237 225 221 223 229 239 240
249 239 234 234 235 226 202 200 200 195 201 187 200 210 200 199 188 186 196 194 197 193 195 201 191 200 206 213 209 214 200 201 191 171 195 182 195 203 193 207 204 205 207 210 210 209 213 219 219 225 229 230 231 226 225 222 225 230 236 242 246 252
238 247 238 234 232 220 209 208 206 205 202 209 197 194 196 203 180 190 183 189 188 198 202 203 198 209 211 209 207 200 179 177 180 179 193 186 187 190 189 187 190 191 203 206 212 206 208 209 213 221 228 221 206 207 212 221 229 238 239 240 237 238
236 227 230 232 232 218 211 204 208 208 206 219 215 204 191 184 168 176 178 185 194 193 207 203 207 205 203 195 180 155 159 171 172 171 187 188 177 183 199 206 196 209 187 210 182 191 197 190 180 191 205 211 213 213 218 230 232 233 234 235 242 251
240 235 232 231 231 219 220 211 206 203 200 213 210 195 179 167 165 173 184 183 199 206 208 202 187 177 165 150 148 164 170 165 172 182 179 170 189 204 211 211 206 227 194 213 201 204 192 191 189 198 207 211 215 208 211 220 236 241 248 252 248 250
232 230 226 232 232 232 227 217 222 221 229 228 213 185 192 172 169 178 184 193 205 211 186 167 156 143 147 157 163 170 174 176 175 168 163 173 196 195 200 199 200 204 220 215 199 206 197 198 208 205 207 211 221 201 224 226 231 242 261 266 259 247
249 245 236 238 229 232 227 223 219 214 212 215 201 190 191 165 185 178 189 202 208 190 174 160 157 163 160 170 178 181 180 181 183 189 202 210 203 202 204 195 203 199 205 208 214 206 198 211 214 210 211 205 207 208 225 241 244 236 233 240 251 256
251 250 241 237 227 226 224 225 224 220 227 221 196 194 184 174 183 190 192 208 195 182 164 164 172 168 184 187 184 184 185 190 188 203 224 229 221 217 214 207 210 210 208 208 204 210 216 220 209 200 200 209 213 206 203 208 230 227 234 237 247 260
247 239 237 233 226 222 222 225 222 204 224 212 204 190 170 181 188 191 201 202 183 180 176 175 171 184 192 185 196 189 186 177 185 207 208 204 204 211 202 209 215 215 220 221 222 219 214 219 213 196 195 199 204 198 194 196 209 209 222 243 246 268
238 235 239 235 227 221 225 214 200 219 219 208 202 156 179 190 190 193 201 196 189 188 183 180 186 193 194 202 192 179 172 181 189 198 198 204 204 194 195 209 205 212 207 201 206 218 216 215 205 198 199 196 194 197 192 193 188 182 211 218 235 245
248 238 232 232 233 227 227 196 210 220 197 174 154 181 189 182 192 197 203 193 196 191 185 187 191 199 202 187 181 176 181 188 201 198 198 194 195 197 205 208 211 209 200 201 204 210 208 208 204 197 197 195 193 195 187 194 185 182 180 190 190 174
247 251 241 232 228 226 197 210 217 211 175 174 178 187 183 193 192 200 200 197 195 187 189 191 194 200 193 183 180 183 192 195 197 198 200 195 194 196 201 202 207 211 206 207 206 202 210 216 202 201 195 194 191 186 177 165 163 166 172 172 164 169
232 230 231 233 223 210 196 218 199 186 205 171 182 184 196 192 195 202 192 202 199 196 193 190 195 195 185 183 183 192 198 196 199 200 192 190 197 204 200 210 202 200 203 204 199 204 220 221 204 198 193 187 185 166 147 151 163 169 164 151 152 164
234 236 237 253 190 199 213 215 180 190 175 179 193 183 189 187 202 207 203 208 202 198 194 192 192 192 187 185 188 198 199 196 199 199 182 187 194 192 200 200 194 197 193 194 200 204 224 223 217 203 195 184 168 148 147 149 149 153 153 174 177 175
261 247 216 229 216 212 210 184 184 177 185 193 182 179 190 193 213 212 204 209 204 198 192 191 190 190 188 187 198 200 199 195 192 196 183 188 186 195 196 189 195 192 190 188 199 197 198 213 218 212 202 185 171 159 156 156 152 165 176 172 165 156
246 242 213 209 218 222 197 183 172 176 194 191 185 191 194 208 220 212 207 213 204 192 190 189 190 192 190 195 202 195 192 194 194 181 173 188 183 190 176 179 186 188 192 196 196 195 193 200 211 214 204 188 178 165 157 157 156 164 187 171 162 155
265 234 213 212 225 213 184 171 171 189 197 197 177 185 210 216 218 215 214 215 188 186 184 188 192 194 194 200 195 191 195 181 173 181 181 186 183 178 172 171 181 187 199 189 187 194 199 191 205 218 217 195 184 172 155 153 154 183 187 179 171 167
238 241 232 227 231 184 171 166 176 197 205 195 182 200 212 221 221 213 202 178 174 185 191 191 194 197 200 196 191 183 179 183 187 177 180 182 179 170 170 177 181 189 198 193 192 192 203 193 191 208 209 205 190 175 160 167 186 185 171 174 175 188
257 256 261 254 245 186 172 174 189 207 203 195 210 214 214 220 221 194 178 178 187 189 190 196 198 196 192 181 172 181 192 189 180 182 179 173 171 174 178 175 178 187 194 198 195 196 200 202 201 194 207 202 193 185 178 170 202 181 161 157 183 176
263 256 256 249 204 183 172 173 199 211 205 211 222 221 223 220 181 184 189 186 185 190 192 192 190 191 185 184 185 185 190 180 178 180 176 174 173 175 177 181 180 185 193 193 203 200 203 201 203 201 200 204 196 193 190 195 186 170 160 168 183 196
260 256 245 227 199 181 178 177 201 210 209 224 226 222 231 197 179 178 184 191 196 188 189 189 189 186 184 184 180 185 184 185 184 178 183 179 175 176 180 186 183 187 192 195 197 201 203 202 196 204 200 192 199 200 200 201 185 167 184 180 193 191
259 268 278 263 214 202 191 193 198 210 215 229 209 216 213 195 184 182 193 194 196 194 190 183 185 186 185 183 179 183 188 187 182 184 187 178 182 182 186 189 184 193 194 190 194 194 194 193 190 194 197 192 196 199 201 202 190 191 164 179 196 170
268 254 255 259 231 219 208 207 201 208 223 223 212 217 197 186 185 195 201 197 193 191 178 182 186 186 186 184 188 193 193 189 187 189 182 182 188 189 189 188 189 196 193 196 192 189 189 181 180 185 180 181 184 192 198 192 192 192 189 182 177 181
260 254 243 253 247 223 222 212 213 220 229 224 213 194 179 187 194 203 203 199 195 181 177 182 184 185 187 188 190 194 192 190 193 192 187 189 189 191 195 191 191 196 196 198 191 180 176 184 182 180 175 171 170 175 178 167 172 173 174 167 164 161
248 252 250 250 257 239 236 231 229 228 233 237 192 178 180 193 198 201 204 199 186 184 184 190 187 183 187 190 189 191 194 198 195 196 194 191 191 189 195 191 192 197 198 196 181 170 174 186 189 185 179 172 169 162 153 158 156 169 169 157 155 142
239 241 244 251 251 239 235 237 237 231 225 223 191 170 182 203 205 211 209 187 177 191 189 193 190 193 191 191 195 203 200 195 195 203 212 219 212 202 192 191 196 199 196 185 178 175 184 185 197 199 161 163 165 159 159 169 182 172 175 167 148 109
227 244 247 256 255 233 236 241 244 237 222 199 189 180 197 205 195 198 203 185 191 189 184 195 195 196 195 195 197 195 204 208 207 213 208 201 183 184 182 180 195 179 165 172 181 183 191 197 171 140 159 161 163 165 167 173 168 171 160 162 150 127
213 222 247 255 261 246 238 242 241 225 209 194 189 189 203 188 195 204 203 190 199 194 189 187 188 190 193 190 189 191 193 177 162 177 176 158 154 154 151 155 145 149 167 165 161 121 125 133 146 157 159 158 160 166 170 168 170 164 160 151 122 97
270 235 241 256 257 253 254 255 251 227 207 191 193 191 195 194 193 206 206 201 199 185 187 187 188 184 187 190 187 188 184 180 163 92 114 163 164 159 158 157 159 170 176 178 165 152 145 156 158 163 168 165 164 164 163 164 161 157 157 160 137 114
273 280 272 272 270 260 254 254 258 228 206 193 189 185 196 202 203 212 208 197 189 187 186 183 184 187 187 187 183 188 183 182 181 173 151 93 137 157 161 159 160 162 164 164 161 158 152 151 160 162 161 160 159 162 164 164 160 161 159 145 116 135
272 272 278 275 270 269 271 263 263 247 215 191 193 197 207 209 211 214 202 193 189 185 188 190 189 187 191 191 190 189 186 190 186 181 161 148 135 108 97 147 156 157 153 153 155 148 143 147 153 151 148 147 150 152 155 151 159 160 165 152 143 137
273 276 267 267 271 264 256 257 268 260 203 199 201 206 217 221 220 220 218 201 188 191 193 192 189 189 187 187 189 189 191 190 185 174 174 176 172 171 167 160 149 145 139 142 147 147 146 148 148 145 145 144 143 147 147 137 142 154 154 119 120 136
267 267 272 262 260 258 261 263 254 200 189 195 200 211 219 222 220 218 212 203 197 195 194 192 192 187 185 186 189 187 188 181 176 178 183 174 163 156 146 133 139 133 131 135 140 146 146 146 144 143 144 150 151 149 136 138 156 148 156 147 148 141